This is the latest recevied weather packets stored in our database for station/object IZ5MJO-13. If no packets are shown the sender has not sent any weather packets the latest 10 day(s).
| Time | Temp. | Humidity | Pressure | Rain* | Wind** | Luminosity | Snow |
|---|---|---|---|---|---|---|---|
| 1787548795 | 21.11° C | 55% | 1006.8 hPa | - | - | - | - |
| 1787548786 | 21.67° C | 52% | 1006.8 hPa | - | - | - | - |
| 1787547895 | 21.11° C | 55% | 1006.8 hPa | - | - | - | - |
| 1787546994 | 21.11° C | 56% | 1006.9 hPa | - | - | - | - |
| 1787546093 | 21.11° C | 56% | 1006.8 hPa | - | - | - | - |
| 1787545193 | 21.11° C | 55% | 1006.8 hPa | - | - | - | - |
| 1787544292 | 20.56° C | 55% | 1006.7 hPa | - | - | - | - |
| 1787543392 | 21.11° C | 54% | 1006.5 hPa | - | - | - | - |
| 1787542492 | 20.56° C | 52% | 1006.5 hPa | - | - | - | - |
| 1787541591 | 21.11° C | 53% | 1006.5 hPa | - | - | - | - |
| 1787540691 | 21.11° C | 54% | 1006.6 hPa | - | - | - | - |
| 1787539791 | 21.11° C | 54% | 1006.6 hPa | - | - | - | - |
| 1787538890 | 21.11° C | 54% | 1006.6 hPa | - | - | - | - |
| 1787537989 | 21.11° C | 53% | 1006.7 hPa | - | - | - | - |
| 1787537479 | 21.67° C | 52% | 1006.7 hPa | - | - | - | - |
| 1787537089 | 21.11° C | 52% | 1006.6 hPa | - | - | - | - |
| 1787536189 | 21.11° C | 52% | 1006.6 hPa | - | - | - | - |
| 1787535288 | 21.11° C | 52% | 1006.6 hPa | - | - | - | - |
| 1787534388 | 21.11° C | 54% | 1006.6 hPa | - | - | - | - |
| 1787533488 | 21.67° C | 52% | 1006.9 hPa | - | - | - | - |
| 1787532588 | 21.67° C | 52% | 1006.8 hPa | - | - | - | - |
| 1787531688 | 21.67° C | 52% | 1006.7 hPa | - | - | - | - |
| 1787530792 | 21.67° C | 51% | 1006.8 hPa | - | - | - | - |
| 1787529891 | 21.67° C | 49% | 1006.9 hPa | - | - | - | - |
| 1787528991 | 21.67° C | 49% | 1006.9 hPa | - | - | - | - |
* Rain since midnight (hover to see other rain measurements)
** Current wind speed in m/s (hover to see current wind gust speed)